Theta_e
351 352 352 353 351 350 350 351 351 350 348 349 348 349 348 349 351 351 351 350 349 350 348 348 348 349 348 345 344 346 346 346 346 348 347 341 340 341 342 345 346 347 348 348 347 346 346 345 345 345 341 339 340 341 342 342 342 343 344 344 345 345 345 345 344 345 345 345 343 342 341 341 340 338 336 336 336 338 338 338 339 339 339 339 339
350 352 352 352 351 350 350 351 351 350 349 349 349 348 348 350 352 351 351 350 349 349 348 347 347 347 347 344 343 344 345 345 344 345 346 341 340 341 341 343 345 347 348 348 348 346 345 345 346 346 343 341 341 341 340 339 340 340 341 342 343 344 344 344 343 343 344 344 343 343 342 341 340 339 337 337 339 339 339 340 340 339 339 340 339
351 353 353 351 351 350 350 351 350 349 350 349 349 349 349 350 351 351 351 350 349 350 349 346 346 346 346 343 342 343 344 344 343 341 342 340 339 341 341 342 344 346 347 347 348 347 346 346 346 345 344 342 342 342 341 339 339 340 340 341 342 342 342 342 342 342 343 343 343 342 342 342 342 342 340 340 341 340 341 342 341 341 340 340 340
351 353 353 351 350 350 350 351 350 350 351 350 350 350 351 352 352 352 351 350 350 349 348 346 345 345 346 344 341 342 344 344 341 338 339 339 339 340 341 342 343 345 346 347 348 348 347 347 347 346 345 344 343 343 343 342 341 341 341 341 342 342 341 341 341 341 342 342 341 342 342 342 342 342 341 341 341 341 340 340 341 341 341 340 340
351 353 352 351 351 350 351 351 351 351 351 351 351 351 352 353 352 352 351 350 350 349 347 347 346 345 345 345 341 341 344 343 339 337 338 338 339 340 341 343 344 345 345 347 347 348 348 348 347 346 346 346 344 343 344 344 343 343 343 343 342 342 341 341 341 341 342 342 340 341 342 342 342 342 341 341 341 340 340 340 340 340 341 341 340
351 352 352 351 351 351 351 351 351 352 352 351 351 351 352 351 351 352 350 349 349 348 347 347 346 345 343 343 342 341 344 343 338 338 337 338 339 339 341 343 345 345 344 345 347 348 347 347 346 346 345 346 345 344 344 345 345 345 345 344 344 344 343 342 341 342 342 342 341 341 341 342 342 342 341 341 341 341 340 341 341 342 342 343 343
350 352 352 352 352 352 352 351 352 352 352 352 353 353 352 351 351 351 351 350 349 348 347 346 345 344 342 340 341 341 343 342 340 339 337 337 339 340 341 342 343 344 342 342 344 347 347 347 346 345 345 346 346 346 345 345 345 345 345 345 345 344 344 343 342 342 342 342 342 342 342 343 342 342 342 342 342 341 342 343 343 343 343 343 344
351 352 352 353 353 353 352 352 352 352 352 354 353 353 352 351 351 351 351 350 350 348 347 346 345 343 341 339 340 341 343 342 341 340 339 340 341 342 342 341 341 341 342 341 342 345 346 346 346 345 345 345 346 347 346 346 345 346 346 345 345 345 344 343 342 342 342 342 343 343 343 343 342 342 342 343 343 343 343 343 343 344 344 343 343
352 353 353 353 353 353 354 352 352 353 353 353 353 352 352 351 351 352 352 351 351 350 346 344 344 343 341 340 340 342 343 342 342 342 342 343 344 344 343 343 343 342 342 341 341 343 344 345 346 346 346 345 346 346 346 347 346 346 346 346 345 345 344 343 343 343 343 343 343 343 343 343 342 342 342 342 343 343 343 343 344 343 343 344 343
354 353 354 354 354 354 354 353 353 354 353 353 354 353 352 351 351 352 351 351 351 350 347 343 343 342 340 340 342 343 343 341 342 343 344 345 345 346 345 346 346 343 341 341 341 341 343 345 346 346 346 345 345 346 346 346 346 346 346 346 346 345 344 344 344 343 344 344 344 343 343 343 343 343 343 343 343 343 343 343 344 343 343 343 343
356 355 354 354 354 354 354 353 353 354 353 353 354 353 352 352 352 352 352 351 350 347 346 344 343 341 340 341 342 343 342 342 342 343 344 344 344 345 345 346 347 345 341 340 341 342 342 344 346 346 346 346 345 345 345 345 346 346 346 346 346 346 345 344 344 344 345 344 344 344 344 344 344 343 343 343 343 343 343 343 342 343 342 342 342
356 356 354 355 355 354 354 353 353 354 352 353 353 353 352 352 352 351 351 352 350 344 343 344 342 339 339 341 343 342 341 342 343 344 344 344 344 344 344 345 346 346 343 340 340 341 342 343 345 346 346 346 346 345 345 345 346 346 346 346 346 346 346 345 345 346 345 345 344 344 344 344 343 344 343 343 343 343 343 342 341 341 340 339 339
354 354 353 354 355 355 354 353 353 353 352 352 353 353 353 353 352 350 351 351 346 340 341 342 340 338 338 339 342 342 343 343 343 343 343 343 344 343 343 344 344 345 346 342 340 340 341 342 343 345 345 346 346 345 345 346 346 346 346 346 346 346 346 346 346 346 345 345 345 344 344 344 343 342 342 342 341 339 336 334 333 331 330 327 326
350 350 353 354 355 354 354 353 354 354 354 354 355 354 353 354 351 350 351 349 343 338 339 340 338 338 337 337 340 341 342 343 343 343 343 343 343 343 343 341 342 343 345 345 342 342 342 342 343 343 343 344 344 344 344 346 346 345 345 345 346 346 346 346 346 346 345 344 344 345 344 341 337 334 334 335 332 328 323 321 320 319 319 318 317
349 347 350 353 354 354 353 354 354 355 355 355 355 353 353 355 351 349 351 350 346 341 338 338 338 338 338 341 343 341 338 339 342 342 342 343 343 343 343 340 340 342 344 344 343 343 343 343 344 343 342 341 342 343 344 344 344 344 344 344 345 346 346 346 345 344 345 344 343 340 334 328 324 321 322 323 320 318 317 317 317 318 319 319 319
350 348 347 350 354 355 353 354 354 355 355 355 355 353 354 355 352 351 352 352 349 342 338 339 338 337 340 344 343 342 343 340 338 340 340 343 343 343 342 339 339 343 343 343 342 342 342 342 344 344 342 340 340 341 343 341 340 342 345 344 344 344 345 345 344 343 343 339 333 326 319 317 317 316 317 317 317 317 318 319 321 322 324 324 324
351 350 347 346 351 354 354 354 354 355 356 356 355 353 354 355 352 352 352 352 350 342 339 340 339 336 340 343 341 345 352 345 337 339 340 342 344 342 342 340 340 342 342 342 341 340 339 340 341 341 341 341 341 341 341 337 334 337 341 343 344 343 343 343 339 336 331 324 318 316 316 317 317 317 318 318 319 320 321 324 325 327 327 327 326
351 351 349 345 347 353 354 354 354 355 356 356 356 354 355 355 352 353 352 352 350 342 339 341 340 338 337 341 342 344 349 343 342 344 339 339 343 343 342 339 340 342 341 341 340 338 338 338 339 340 340 340 339 337 334 329 326 327 330 337 341 341 339 337 328 323 319 316 316 317 318 320 320 321 322 323 324 324 326 327 328 327 327 326 327
351 351 351 347 346 351 354 354 354 355 356 355 355 355 355 354 352 352 352 351 350 343 339 341 341 340 340 340 342 343 340 338 343 347 342 338 339 343 343 340 341 342 341 340 339 338 337 337 339 339 339 340 338 334 330 325 322 321 320 325 330 330 329 325 319 316 316 318 320 322 323 325 326 326 327 327 327 328 328 328 328 327 327 328 328
351 352 352 350 348 349 352 354 353 355 356 355 354 355 354 353 353 353 353 352 352 346 340 341 342 340 341 342 342 342 340 337 339 342 345 343 339 340 341 342 342 342 341 340 339 339 337 336 338 339 340 339 338 335 332 329 326 322 319 318 319 319 319 317 316 317 320 323 325 327 327 327 327 327 327 328 328 328 328 328 328 328 328 329 329
352 352 352 351 350 349 351 352 353 353 355 355 354 354 354 353 354 355 353 352 354 352 345 341 341 339 340 342 341 341 340 339 337 336 341 344 342 338 337 339 341 342 342 340 340 339 336 337 339 339 340 340 338 335 335 335 332 325 321 319 317 318 318 318 320 322 325 327 327 327 327 327 327 327 327 328 328 328 329 329 329 329 330 330 330
353 353 353 352 352 352 353 353 353 352 354 355 355 355 355 354 354 354 353 353 353 353 350 342 339 339 339 340 341 341 341 339 338 337 338 339 342 339 334 336 338 339 341 340 340 340 337 338 340 339 339 338 337 336 336 337 335 328 324 323 323 323 324 324 325 326 326 326 326 327 327 327 328 328 328 329 328 329 329 330 330 330 330 331 331
354 353 353 353 353 353 355 354 355 355 355 356 356 357 355 353 354 355 352 353 353 353 351 344 338 339 338 337 340 340 340 339 338 339 337 338 341 340 336 336 336 337 338 339 340 339 338 339 339 338 337 337 336 335 336 336 336 332 327 326 327 326 326 326 326 326 326 326 327 328 328 328 328 329 329 328 329 329 329 329 330 329 329 330 330
354 353 354 354 354 355 356 356 357 358 357 357 357 357 355 353 354 355 354 353 353 353 351 345 342 341 338 336 339 340 339 339 338 337 337 337 340 340 338 337 336 335 336 338 340 338 338 339 338 337 337 337 336 335 336 336 337 334 329 327 327 327 327 327 327 327 327 328 328 328 328 328 328 328 329 328 328 328 328 328 328 328 328 328 329
355 354 354 354 355 356 356 356 357 357 357 358 358 358 357 355 355 355 355 354 353 353 351 348 346 345 340 337 339 340 339 340 338 339 339 338 338 338 339 340 338 336 336 337 339 339 339 339 338 337 337 337 336 336 337 337 337 335 331 329 328 327 328 328 328 328 328 328 328 328 328 328 328 328 329 328 328 328 327 327 326 326 326 326 327
354 354 353 354 355 355 356 356 355 355 356 357 358 358 358 357 357 356 355 354 353 353 351 348 348 346 344 340 340 340 340 339 338 339 341 340 339 338 340 343 339 336 337 338 338 339 339 339 338 338 338 338 337 337 337 337 338 337 334 333 331 330 330 329 329 328 329 329 329 329 328 329 329 328 329 328 327 327 325 325 325 325 325 325 325
353 353 353 354 355 356 356 356 355 355 355 356 357 358 359 359 358 357 356 355 354 354 352 349 347 347 346 344 344 343 341 339 337 338 341 341 340 339 340 345 345 339 337 338 338 338 339 338 338 338 338 338 338 337 337 337 337 337 336 336 334 334 335 333 332 330 330 330 329 329 329 329 329 329 329 328 326 325 325 325 326 326 325 325 325
352 354 353 354 354 354 356 356 356 355 355 356 357 358 359 360 359 358 358 357 355 354 354 351 347 346 347 346 345 344 342 341 339 338 340 342 341 340 339 342 347 346 343 342 339 337 338 337 337 338 337 338 338 337 337 337 337 337 337 336 336 335 336 336 334 333 332 332 331 331 330 330 329 329 330 327 325 325 325 326 326 326 326 325 325
352 354 354 354 353 353 354 356 356 355 355 355 357 359 360 360 360 359 359 359 357 356 355 354 349 345 347 346 345 344 342 340 341 339 338 341 341 341 340 338 342 347 349 349 343 337 337 338 337 337 337 337 338 337 337 337 336 337 337 337 336 336 337 337 335 334 334 333 332 333 333 332 330 330 329 327 325 325 326 326 327 327 326 325 325
352 353 354 353 353 353 353 355 356 356 356 355 356 359 361 361 361 360 360 359 359 358 356 356 353 348 347 347 345 344 342 338 339 341 340 340 340 340 341 339 339 342 343 347 346 339 336 338 337 337 338 336 337 337 337 336 336 336 337 336 336 336 337 338 337 335 335 334 334 334 335 335 333 331 329 326 324 325 327 328 328 328 327 326 325
354 353 353 353 354 355 354 355 356 356 357 356 356 358 360 361 361 360 360 360 360 359 357 356 356 352 349 347 345 345 345 340 339 340 341 341 340 338 340 340 338 339 338 341 344 341 337 338 337 337 337 336 337 336 336 336 336 337 336 337 337 337 338 338 337 336 335 334 334 335 336 336 334 331 328 326 324 326 328 329 329 328 327 326 325
356 355 354 354 354 355 355 355 356 357 357 357 357 359 360 361 361 361 360 360 359 358 357 357 357 355 352 349 347 344 346 345 342 342 343 344 342 339 338 339 338 340 339 338 340 340 337 337 337 337 337 335 336 336 336 336 336 336 337 337 337 337 338 338 336 336 336 335 336 336 337 336 333 331 328 326 325 326 329 331 331 330 327 325 324
356 356 356 355 354 355 355 356 356 357 357 357 358 359 360 360 360 361 361 360 359 358 358 358 357 357 355 353 350 347 345 345 345 344 345 345 345 342 339 339 338 338 339 339 339 338 339 339 339 338 337 334 335 335 335 336 336 336 337 337 337 337 337 337 336 336 336 337 337 338 338 335 332 328 327 326 326 328 331 332 332 331 327 324 324
355 356 356 356 356 356 357 357 357 357 357 357 358 359 359 360 360 361 361 361 360 359 358 358 358 357 358 356 353 349 346 346 344 343 344 345 346 346 342 340 339 338 339 340 340 340 340 340 341 340 339 337 336 336 336 336 336 336 337 337 337 337 337 337 337 336 337 337 338 339 338 338 334 330 327 327 329 331 332 333 333 332 329 326 326
356 355 356 356 357 357 358 357 358 357 357 357 358 359 359 359 360 360 360 360 360 360 359 358 358 358 358 357 355 351 349 349 346 343 342 344 345 347 345 341 340 339 340 340 341 341 340 340 341 341 340 338 337 337 337 337 336 336 336 336 337 337 337 337 337 337 337 337 338 338 338 338 337 333 330 332 333 334 333 333 333 333 330 328 328
357 356 356 356 356 357 357 357 357 357 357 357 357 358 358 358 359 359 360 360 360 360 359 359 359 358 358 358 356 354 351 351 350 345 343 344 344 345 346 344 341 339 340 341 342 341 341 341 340 341 340 339 337 337 336 336 336 336 336 336 337 337 337 338 337 338 338 337 337 338 338 338 337 333 333 335 335 334 334 333 334 334 332 329 328
358 358 357 357 357 357 357 357 358 357 357 357 358 358 358 357 358 358 359 359 359 360 359 358 358 358 357 357 356 355 353 351 350 350 346 344 343 343 345 345 343 341 341 342 342 342 341 340 340 340 340 339 337 337 336 336 336 336 337 337 338 338 338 338 338 338 338 337 336 336 337 337 336 334 335 336 335 335 335 334 334 334 333 330 329
356 357 358 359 358 358 358 358 359 358 358 358 357 357 358 358 358 358 359 359 359 359 359 358 358 357 357 356 355 355 354 353 351 351 349 347 345 343 343 344 345 344 342 341 342 342 342 341 341 340 340 340 338 337 337 338 338 338 338 338 339 339 339 339 339 339 339 338 337 336 337 337 336 335 336 337 336 336 336 335 335 334 334 332 330
354 355 357 358 359 359 359 359 359 358 358 359 358 358 358 358 358 359 359 359 359 359 359 359 358 358 357 356 355 355 354 353 353 352 351 351 348 345 343 343 345 345 344 342 342 342 343 342 341 340 341 340 340 339 339 339 339 338 338 339 340 340 339 339 340 339 339 339 339 337 336 338 338 337 337 338 337 337 337 336 335 335 335 334 330
353 353 355 357 358 359 358 359 359 359 359 358 358 358 359 359 358 359 359 359 359 359 359 358 358 358 358 356 355 355 354 353 353 352 352 352 350 348 345 343 344 345 345 344 343 343 343 343 342 341 341 341 341 341 341 340 340 340 339 339 340 339 339 339 339 339 339 340 339 337 336 338 339 339 338 338 338 338 337 336 335 335 335 335 332
353 352 353 354 356 358 358 357 358 358 359 359 359 358 359 359 359 359 359 360 360 360 359 359 358 358 358 357 356 355 354 353 353 353 352 352 351 350 348 346 345 345 345 344 344 344 343 343 343 342 342 341 342 342 341 341 340 340 340 339 340 339 339 339 339 338 338 339 340 338 337 337 338 338 338 338 338 337 337 335 335 335 335 334 333
353 352 352 353 354 356 357 358 358 358 358 359 358 359 358 359 359 359 359 360 360 359 360 359 358 358 358 358 357 356 355 354 354 353 352 352 352 351 350 349 347 345 345 345 344 344 343 343 343 342 342 341 342 341 341 341 341 340 340 339 339 340 339 339 339 338 338 338 340 340 337 336 337 338 338 338 338 338 338 336 335 334 334 334 332
354 353 353 352 354 354 355 356 357 357 358 358 359 358 359 359 358 359 359 360 360 360 360 359 358 358 358 357 358 357 357 356 355 354 354 353 353 352 351 350 349 347 346 345 345 344 344 343 343 342 342 341 341 342 342 342 341 341 340 339 339 339 339 339 339 339 338 337 339 340 338 336 337 338 338 339 339 339 339 337 334 332 333 332 330
354 353 353 353 353 354 355 356 356 357 357 357 357 358 359 359 359 359 359 359 360 359 360 359 359 359 358 358 357 357 357 357 356 356 355 355 354 353 353 352 350 349 348 347 346 344 344 344 343 343 342 341 341 341 341 342 342 341 341 340 340 340 339 339 339 339 338 337 338 340 339 337 338 339 339 339 339 339 340 338 335 333 331 328 326
354 354 354 354 354 354 354 356 356 357 357 357 357 357 358 358 359 360 360 360 360 360 360 359 360 359 358 357 357 357 357 357 357 357 356 356 355 355 354 353 352 351 350 349 348 346 345 344 344 343 343 342 341 341 340 341 341 342 341 341 340 340 339 340 340 339 338 337 337 339 340 338 338 340 340 340 339 340 340 338 336 334 329 323 322
353 354 354 354 354 354 354 355 356 356 357 357 358 358 357 358 358 360 360 360 360 360 360 360 360 359 358 358 357 357 357 357 357 357 356 356 356 355 354 353 353 352 351 350 349 348 346 344 344 343 343 342 342 341 340 340 341 342 341 341 341 340 340 340 340 339 339 338 337 339 340 339 338 340 341 340 339 340 339 338 337 334 327 322 323
353 353 354 354 355 354 354 354 355 355 356 357 357 357 357 357 358 360 361 361 360 360 359 360 360 359 359 359 358 358 357 357 357 357 357 357 356 355 354 354 353 352 352 351 351 349 348 346 345 344 343 342 342 341 340 340 340 340 341 340 340 340 340 340 340 340 339 339 339 339 340 339 338 340 340 339 339 340 338 338 338 332 326 323 325
354 354 354 354 355 355 355 355 355 355 355 355 356 358 358 358 359 360 360 361 361 361 360 360 360 360 360 359 359 358 358 357 357 357 357 357 357 356 355 354 353 352 352 352 351 350 350 349 348 347 345 344 343 342 340 340 340 340 340 340 340 340 341 340 340 340 340 340 340 340 340 340 339 340 340 339 339 339 339 339 337 330 325 324 325
355 354 355 355 355 356 356 356 356 355 355 355 357 357 358 359 359 360 361 361 360 361 361 361 360 360 359 360 359 359 359 358 358 357 357 357 357 357 356 354 354 352 352 352 351 351 351 350 350 349 348 346 344 342 342 341 340 340 340 341 341 341 341 340 340 340 340 340 340 340 340 340 339 339 340 339 339 339 339 338 335 328 324 323 323
355 355 355 355 356 356 358 358 358 358 357 357 358 358 360 360 360 361 361 360 360 360 360 361 361 361 360 360 359 359 359 358 359 358 357 357 357 357 356 355 354 353 353 352 351 351 351 350 350 349 348 347 345 344 343 342 341 340 341 341 341 341 341 340 340 340 340 341 341 341 341 340 339 339 340 338 337 338 339 336 331 326 324 322 321
356 355 355 355 355 356 357 358 359 359 359 359 359 359 359 360 360 361 362 361 360 360 360 360 360 360 360 360 359 360 359 359 359 358 358 358 357 357 357 357 356 355 355 354 353 352 351 350 350 349 348 348 347 345 344 343 342 341 341 341 341 341 341 341 341 340 341 341 341 341 341 340 339 339 339 335 332 332 334 334 329 325 323 321 321
Wind_Speed
10 9 7 7 6 6 6 5 5 5 4 4 5 6 6 6 5 5 6 4 4 5 6 6 4 2 3 5 10 12 13 11 9 10 10 10 11 11 12 12 12 11 11 10 9 9 8 8 8 8 7 7 8 8 8 8 8 8 7 7 6 6 5 5 5 4 4 3 3 2 2 2 2 1 1 2 2 3 3 4 4 4 5 5 5
10 10 9 8 7 7 7 6 5 5 5 5 6 6 6 7 6 5 5 4 5 6 6 7 5 2 1 2 8 13 15 13 10 10 11 11 11 11 12 12 12 12 11 11 10 9 8 9 9 8 8 8 7 7 7 8 8 8 7 7 6 5 5 5 5 4 4 4 3 3 3 3 3 3 3 3 3 3 4 5 5 5 6 6 6
10 10 10 9 8 8 8 7 6 5 5 6 6 5 6 7 6 4 3 3 5 6 7 8 6 4 3 2 6 11 14 14 11 12 12 12 11 11 12 12 12 11 11 10 10 9 8 9 9 8 9 8 8 7 7 7 8 7 7 7 6 6 5 5 5 5 5 4 4 5 4 4 3 4 4 4 4 5 5 6 6 6 7 7 7
12 11 11 10 9 9 8 8 7 6 5 6 6 6 6 6 6 5 4 3 4 5 7 8 7 6 4 3 7 10 14 15 13 13 13 12 11 11 12 12 12 11 11 10 10 10 9 9 8 8 9 9 9 8 8 7 7 7 7 7 6 6 6 5 5 5 5 5 5 5 5 5 5 5 5 5 5 6 6 6 7 7 7 8 8
14 12 11 11 10 9 8 8 7 6 6 7 7 7 6 6 5 5 4 3 5 6 6 7 6 5 2 2 7 10 15 16 14 14 13 12 12 11 11 11 12 12 11 11 10 10 10 9 8 8 8 9 9 9 9 8 8 7 7 7 7 7 6 6 6 5 5 5 5 5 5 5 5 5 6 6 6 6 7 7 8 8 8 8 9
13 12 12 11 11 10 8 8 7 6 7 7 7 7 6 5 5 4 3 4 6 7 6 6 5 3 3 2 6 10 16 18 14 14 13 13 12 11 11 11 12 12 12 12 11 11 11 10 10 9 9 9 10 10 10 9 9 8 8 8 7 7 7 7 7 7 7 7 6 6 6 6 6 6 6 7 7 7 8 9 9 9 9 9 9
13 13 13 13 12 10 9 8 7 7 7 6 6 6 5 4 4 4 5 5 7 6 5 5 4 4 6 5 7 10 17 19 14 13 13 13 12 11 10 10 10 12 12 13 13 12 12 11 11 10 10 10 10 10 10 10 10 9 9 9 8 8 8 9 9 8 8 8 7 7 7 6 7 7 7 7 8 8 9 9 9 9 9 9 9
14 14 14 14 13 11 9 9 8 7 7 6 6 6 4 4 4 4 5 5 5 5 4 4 4 5 5 4 10 14 18 18 14 14 14 13 12 11 11 9 8 9 11 13 13 13 12 12 11 11 11 11 11 11 10 10 10 10 10 10 10 9 10 10 10 10 9 8 8 7 7 7 7 8 8 8 9 9 9 9 9 10 10 10 9
15 15 14 13 12 11 10 9 9 8 7 6 6 6 5 5 5 6 6 4 3 3 4 4 5 5 4 5 15 19 20 18 15 15 15 14 13 12 11 9 8 7 10 12 12 12 13 12 11 11 11 11 11 11 11 10 10 10 10 10 10 10 10 10 10 10 10 9 9 8 8 8 8 9 10 10 10 9 9 10 10 10 10 9 9
16 16 14 13 12 11 11 10 10 9 8 6 6 6 6 7 7 7 7 5 2 4 5 5 5 6 7 11 19 22 20 17 16 16 15 14 13 11 11 9 8 7 8 9 10 11 12 12 12 11 11 11 11 11 11 11 10 10 10 10 10 10 9 9 9 10 10 9 9 9 8 9 9 10 10 10 10 9 9 10 10 9 9 9 9
18 17 15 14 12 12 11 11 10 9 8 7 7 7 7 8 8 7 8 6 2 3 6 5 4 6 10 16 22 21 19 17 16 16 15 14 13 11 10 9 8 7 7 8 8 9 11 11 12 12 11 11 11 11 11 11 10 10 10 10 10 9 9 8 8 9 9 9 9 9 8 9 9 9 9 9 8 8 8 9 9 8 8 7 7
20 18 18 16 14 13 12 11 10 10 9 9 8 8 8 8 8 7 8 7 3 3 6 7 6 9 14 19 22 19 17 17 17 16 15 14 14 12 11 9 9 8 8 7 7 8 9 11 11 12 11 11 11 10 11 10 10 10 9 9 9 9 10 8 7 8 7 8 8 8 9 9 9 9 9 7 7 7 7 7 6 6 6 6 6
22 20 19 18 16 14 13 12 12 11 10 9 8 8 8 8 7 7 8 7 4 5 10 10 9 10 12 15 18 19 18 17 17 16 16 15 14 13 12 10 9 9 8 7 7 8 8 9 10 10 11 10 10 10 10 10 9 9 9 9 8 9 9 8 7 7 7 7 7 7 8 9 8 7 6 5 4 4 4 4 3 4 4 5 5
23 22 20 20 18 16 15 14 13 13 11 9 8 8 8 8 8 8 8 8 4 6 13 12 9 10 9 9 11 14 16 17 18 17 16 15 15 14 13 11 10 9 9 8 8 7 7 8 8 9 9 10 10 10 10 10 9 9 9 9 8 8 8 7 7 7 6 6 7 7 7 6 5 4 3 2 2 2 2 2 2 3 3 4 5
21 22 22 22 20 18 16 15 13 13 12 10 9 8 9 9 9 9 9 9 4 6 12 11 10 12 9 5 4 6 7 9 16 18 17 17 16 16 14 12 11 10 10 10 9 8 8 8 9 9 8 9 10 10 10 10 9 9 9 9 8 8 7 7 7 7 6 6 6 6 5 3 2 1 0 1 1 2 2 2 3 4 4 5 6
20 21 22 23 22 19 17 15 14 13 13 12 10 10 11 10 10 11 11 9 6 8 11 9 12 13 7 3 2 3 2 3 9 13 16 20 18 17 15 13 13 12 12 11 10 9 9 9 8 9 8 8 8 9 9 9 8 9 9 8 9 8 8 7 7 7 7 6 5 3 2 1 1 1 2 1 1 1 2 3 4 5 6 6 7
20 20 21 23 23 21 19 17 15 14 14 13 11 11 12 12 12 12 12 10 7 9 9 7 11 12 7 4 3 2 2 3 6 6 10 20 22 18 16 15 15 15 13 11 11 9 9 9 8 8 8 8 8 8 8 7 7 8 8 8 9 9 8 8 7 7 6 5 3 3 2 2 1 1 1 1 1 2 3 3 4 5 6 7 8
21 20 20 22 23 22 20 18 17 16 15 14 12 12 13 13 13 14 13 11 9 10 12 9 10 10 7 5 3 1 4 5 4 2 5 13 22 21 18 18 17 16 14 12 11 10 9 9 8 9 8 8 8 7 7 7 6 6 7 8 9 8 9 8 7 6 5 4 4 3 2 2 1 0 0 1 2 2 3 4 5 6 7 7 8
23 21 20 20 23 23 22 20 18 17 16 15 14 13 14 14 14 14 13 13 11 11 13 12 12 12 9 6 3 1 6 9 5 3 3 5 15 20 20 20 19 17 16 14 13 11 10 10 9 10 9 8 7 6 6 6 5 5 6 7 8 8 8 7 6 6 5 5 4 3 2 2 1 1 0 1 2 3 4 4 5 6 6 7 7
25 22 21 20 22 23 23 22 20 19 17 16 15 14 14 14 15 16 15 14 13 12 13 14 15 15 11 8 6 2 5 10 10 8 5 3 6 11 15 19 20 19 17 16 16 13 11 12 12 11 10 10 8 7 7 6 4 5 6 7 7 7 7 6 6 7 6 5 4 3 3 2 2 1 1 1 2 2 3 4 5 6 6 7 8
26 23 21 21 22 22 23 22 21 20 18 17 16 15 14 15 16 18 17 16 14 12 13 16 17 17 14 10 7 4 5 9 12 12 9 6 4 5 10 14 16 19 20 18 17 15 12 13 13 12 12 12 10 9 8 6 5 5 6 7 8 8 8 8 7 7 7 6 5 4 3 3 2 1 1 2 3 4 5 6 7 8 9 9 10
27 24 22 22 22 22 23 23 22 21 20 19 18 17 16 16 17 18 18 18 16 14 13 16 17 16 15 14 10 7 6 7 10 11 9 8 6 5 12 14 12 17 21 21 19 17 14 13 14 14 13 13 12 11 10 8 6 6 7 8 8 8 8 8 8 7 7 6 6 5 4 3 3 3 3 4 5 6 8 9 9 10 11 12 12
28 25 24 23 22 23 23 23 23 22 22 20 19 18 17 17 18 18 19 18 18 15 14 15 17 15 14 16 15 11 9 8 11 12 8 7 6 5 11 17 16 17 21 23 21 18 16 15 15 15 14 14 13 11 10 10 8 8 9 9 8 8 8 8 7 7 7 6 6 6 5 4 4 5 5 7 8 9 10 11 11 12 12 12 12
29 27 26 25 24 24 24 24 24 24 23 21 20 18 17 18 19 19 19 19 18 17 16 15 16 15 15 16 16 13 12 12 14 15 11 10 9 8 10 13 13 14 18 23 23 21 19 17 17 17 15 14 13 12 11 11 10 9 10 11 9 9 8 8 7 7 7 7 7 6 6 6 6 7 7 9 10 10 11 12 12 12 12 12 12
31 30 29 27 26 26 26 26 25 24 24 22 21 19 18 19 20 20 20 20 20 18 19 18 16 15 15 15 15 14 14 13 13 13 12 12 11 9 9 9 8 10 14 21 24 22 22 21 18 18 18 16 14 13 13 12 11 11 11 11 11 10 9 9 9 8 8 8 8 8 7 7 7 8 9 10 10 11 12 12 12 12 12 12 11
33 33 31 29 27 27 27 27 26 25 24 23 22 20 19 19 20 21 20 21 21 19 19 19 18 16 16 16 15 15 15 14 15 13 11 12 12 11 9 4 5 8 11 18 22 20 22 25 23 21 20 19 17 15 15 14 13 13 12 11 12 11 10 10 10 10 10 10 10 9 9 9 9 9 10 11 11 11 12 12 12 12 12 12 11
34 33 32 29 28 28 28 27 26 26 25 24 23 22 21 20 20 21 21 21 21 21 20 20 20 19 17 17 16 16 16 16 17 15 13 12 12 13 11 5 2 3 6 13 17 19 24 25 24 25 23 22 22 19 17 17 16 15 14 14 13 13 12 12 12 12 12 11 11 11 11 10 11 11 11 12 11 12 12 12 12 13 12 12 11
34 33 32 30 29 29 29 29 28 27 26 26 25 24 23 22 21 21 22 22 23 22 21 21 22 21 19 18 17 17 16 17 19 18 16 14 12 13 15 12 7 2 3 7 10 17 24 23 22 25 26 24 24 23 20 19 18 17 18 17 16 15 15 14 14 14 13 13 13 13 13 13 13 13 13 12 12 11 12 12 13 13 13 12 10
34 33 32 31 30 30 30 30 30 29 28 27 27 26 25 24 24 23 23 23 24 24 23 22 23 23 21 20 20 18 15 17 20 18 17 17 16 16 17 17 14 7 3 4 6 13 21 23 22 23 25 26 26 25 24 22 20 19 20 20 18 18 17 17 16 15 14 15 14 14 14 14 15 15 14 13 12 12 12 12 12 12 12 12 10
35 33 33 32 32 31 31 31 31 31 30 28 28 28 28 27 26 26 25 24 25 26 25 24 23 23 23 22 22 21 18 18 21 19 18 19 21 21 19 21 20 16 11 7 7 14 20 22 23 22 23 26 27 27 27 24 22 21 22 22 21 19 19 19 18 17 16 16 16 16 15 16 16 16 15 14 13 12 12 11 11 12 12 11 10
36 35 34 33 33 33 33 32 31 32 31 30 29 29 30 30 30 29 27 26 27 27 27 26 24 24 25 24 24 25 22 21 23 21 20 21 24 24 21 21 23 22 20 13 6 13 20 21 23 24 23 24 25 28 29 27 24 23 23 24 22 20 19 19 19 18 18 17 17 17 17 18 18 17 16 15 14 13 12 11 11 11 11 11 10
36 35 35 35 34 34 34 33 33 32 32 32 31 31 31 32 32 31 30 29 29 29 29 28 27 26 27 27 27 28 27 26 26 25 23 22 24 25 24 24 23 23 24 20 11 12 20 22 22 23 23 23 24 27 29 28 26 24 25 24 23 21 20 21 20 19 18 17 17 18 17 18 18 18 17 17 15 14 13 12 12 11 11 10 10
35 35 35 35 35 34 34 34 34 33 33 34 33 33 33 33 33 33 32 30 30 31 30 30 29 28 29 29 29 29 29 29 30 29 27 25 24 25 25 26 25 25 25 24 18 15 18 20 20 20 21 22 24 26 29 30 28 26 26 25 24 23 22 22 22 21 19 19 18 18 17 17 17 18 18 17 17 16 15 14 13 12 11 10 10
36 36 35 35 35 35 35 35 35 35 35 35 35 35 35 35 35 34 33 32 32 32 32 32 32 31 30 31 31 30 29 30 32 32 32 29 25 25 26 27 28 27 27 27 23 18 18 20 20 20 19 21 24 26 28 30 29 27 27 27 26 25 24 23 23 23 22 21 21 20 19 18 17 18 18 18 17 17 16 16 13 12 11 10 10
37 37 37 37 36 35 36 36 36 36 36 36 36 36 36 36 36 36 35 34 34 34 34 34 34 33 32 32 33 32 31 30 32 33 34 33 30 28 27 28 29 29 28 29 26 22 20 22 22 21 21 22 23 25 27 29 29 29 29 28 27 26 25 25 25 25 24 23 23 21 21 20 19 19 18 18 18 18 18 17 15 13 11 11 11
36 38 38 38 37 37 37 37 38 38 38 38 37 37 38 37 37 37 36 36 36 36 37 37 36 35 35 35 35 34 33 33 32 33 34 35 35 32 30 29 30 31 30 30 29 26 23 22 23 24 23 23 23 24 26 28 29 30 30 28 27 27 26 25 25 25 25 24 24 23 22 21 20 19 19 19 19 19 19 18 17 15 13 12 12
36 37 38 38 38 39 39 39 40 40 40 39 39 39 39 39 39 39 38 38 38 38 39 39 38 37 37 38 38 36 35 35 35 34 35 35 36 36 34 32 31 32 31 30 31 30 26 24 24 24 24 24 23 24 26 28 30 31 30 29 28 28 27 27 26 26 25 25 25 25 23 22 20 20 20 20 19 19 19 19 19 17 15 14 13
37 37 37 38 39 40 41 42 41 41 41 40 40 40 40 40 40 40 39 39 39 39 39 39 39 39 39 40 39 37 36 37 37 37 36 36 36 36 36 35 33 32 31 31 30 30 29 29 27 25 25 26 26 26 27 29 30 31 31 31 30 30 29 29 29 28 27 26 26 26 25 23 22 22 21 21 21 20 20 20 20 19 17 16 15
39 38 38 39 40 41 42 42 42 42 41 41 41 41 41 41 41 40 40 40 40 40 40 40 40 39 40 40 40 39 38 39 40 39 38 38 38 37 38 38 35 33 32 31 30 29 29 29 28 28 27 27 28 29 28 29 31 32 32 31 31 33 33 32 31 30 29 27 27 27 26 24 23 22 22 22 23 23 22 21 21 21 19 18 17
41 41 41 40 41 41 42 42 42 42 41 41 41 42 42 42 41 41 41 40 40 40 40 40 40 40 40 40 40 40 40 41 41 41 40 40 39 38 39 39 37 35 33 31 30 30 30 28 28 28 28 27 28 29 27 27 29 33 35 34 32 34 34 34 33 32 31 30 28 27 28 27 26 25 25 25 25 24 23 23 22 21 20 19 19
41 42 42 41 41 42 42 42 42 41 41 42 43 43 43 42 42 42 41 40 40 40 40 40 40 40 40 40 41 41 42 42 43 42 42 42 40 40 40 39 38 37 35 32 30 30 30 28 27 27 26 26 28 28 27 29 33 35 36 34 33 34 33 32 34 34 32 31 30 30 29 29 30 29 28 28 27 25 24 24 23 22 22 21 21
42 42 42 41 41 42 42 42 42 41 41 43 44 45 45 44 43 42 41 40 40 39 39 39 39 39 40 40 41 42 42 43 43 43 44 44 44 43 42 40 40 39 37 33 32 32 31 29 29 28 25 26 30 31 32 35 36 35 32 32 34 34 29 26 29 33 34 33 32 32 32 31 31 31 30 30 29 27 25 25 24 24 23 22 22
42 42 42 41 42 43 42 42 42 42 43 44 45 46 47 46 45 42 41 40 39 38 38 38 38 39 39 40 40 40 40 42 43 45 45 46 46 46 45 44 42 42 40 37 35 35 33 31 31 30 28 29 34 35 35 36 35 34 34 33 33 31 26 22 23 28 33 35 34 34 34 33 32 33 33 32 31 29 27 25 24 23 22 22 21
41 41 42 42 43 43 42 42 43 43 45 45 46 47 47 48 47 44 41 39 38 38 38 38 39 38 38 38 39 39 40 41 43 44 45 47 48 48 48 47 46 45 44 42 40 38 36 34 33 32 33 34 36 37 37 37 35 35 35 35 34 33 30 27 25 28 32 34 33 34 35 35 33 33 34 34 32 30 28 25 23 21 21 20 19
40 40 41 43 43 43 42 42 43 44 45 46 47 47 48 48 48 47 44 40 39 39 39 39 39 38 37 37 36 38 39 40 41 42 44 46 47 48 49 49 48 48 48 48 47 44 42 39 37 37 38 38 37 40 42 40 37 35 34 35 36 34 32 32 35 38 37 33 31 31 33 36 35 34 35 34 33 31 29 27 25 22 20 19 17
40 41 41 42 43 43 43 43 43 43 45 46 46 47 48 48 48 47 46 43 40 39 39 39 39 39 38 37 36 37 38 39 40 41 42 44 44 46 47 48 50 50 51 52 51 49 47 43 41 42 43 42 42 46 45 41 38 38 37 38 38 37 37 40 44 43 37 33 31 27 27 33 35 34 35 35 32 31 30 28 26 23 21 19 17
40 41 41 41 42 43 44 44 43 43 44 45 45 46 48 48 47 46 46 44 41 40 39 39 39 39 39 38 38 39 39 39 40 40 41 42 42 43 44 46 49 51 52 54 53 52 51 49 47 48 48 46 46 48 45 40 40 43 42 42 42 40 40 41 40 37 33 32 31 26 24 29 32 32 35 35 32 31 31 29 28 25 23 21 20
39 39 39 40 41 41 42 42 42 43 44 43 43 44 45 45 45 44 44 45 43 41 39 38 39 40 39 39 40 40 41 41 41 40 40 40 41 41 42 43 46 49 53 55 53 52 53 53 53 53 53 50 48 47 46 42 41 42 41 40 38 34 32 31 30 31 32 31 32 31 27 27 29 31 33 33 32 32 32 31 30 27 25 24 22
38 39 40 40 40 40 40 40 41 42 42 40 39 40 40 40 41 42 43 44 43 42 41 39 39 40 40 41 41 41 43 43 42 41 41 40 41 41 41 41 41 45 51 51 47 49 53 55 56 56 55 53 50 48 47 45 44 42 39 36 34 31 29 25 22 27 30 30 33 34 31 28 28 29 31 31 31 33 33 32 31 28 26 26 24
39 40 40 40 39 39 39 40 41 41 40 37 35 35 35 35 38 41 43 43 42 42 41 40 40 40 40 41 42 43 44 44 43 42 41 41 42 42 40 39 39 44 48 42 38 43 47 50 54 56 55 55 53 51 50 49 48 45 42 41 37 34 31 26 23 25 27 30 35 34 30 30 29 28 28 25 25 31 33 31 29 28 27 26 25
40 40 39 38 38 39 39 39 39 39 37 35 33 32 31 31 34 38 41 42 41 40 40 39 40 40 40 41 42 44 46 46 44 44 43 43 43 43 41 39 40 45 44 35 34 40 41 42 47 51 53 55 55 54 54 52 50 48 49 49 43 37 33 31 29 23 17 23 34 35 31 30 29 29 28 19 13 20 29 30 28 29 29 27 26
Wind_Direction
173 175 186 186 175 165 163 164 162 171 180 174 170 164 163 168 167 153 148 155 170 179 183 183 191 221 278 233 207 205 206 207 209 208 204 193 184 177 175 176 175 176 177 177 178 178 176 177 176 175 173 164 155 150 146 143 141 142 142 143 143 148 157 163 167 170 175 182 191 200 206 219 235 258 290 299 308 313 315 319 318 318 317 317 322
181 180 191 191 182 172 166 165 157 159 168 166 165 163 164 171 173 162 150 162 183 189 188 186 193 196 220 196 193 200 203 202 200 204 202 192 185 181 179 179 179 182 182 181 181 180 179 180 181 182 181 176 169 164 159 155 154 154 153 155 158 163 171 178 186 194 199 201 207 219 225 235 249 258 274 284 290 299 301 307 307 305 307 310 312
191 184 189 191 185 175 167 169 161 152 152 152 157 157 162 171 170 159 156 172 189 199 195 189 182 160 135 157 185 196 201 199 196 200 198 187 182 180 181 183 183 184 186 185 183 182 184 184 184 185 185 186 183 179 176 172 170 169 167 170 174 179 188 196 202 207 213 219 225 230 234 240 254 259 266 275 280 290 295 300 304 304 307 310 312
198 187 186 189 184 175 169 171 166 161 157 151 154 153 154 166 168 157 156 176 199 203 186 180 176 157 132 163 186 196 198 193 193 197 191 182 179 177 178 182 184 186 186 187 187 186 188 189 186 187 188 190 192 190 188 187 184 183 183 185 189 196 202 208 212 213 218 227 234 237 240 242 254 262 268 277 280 286 292 297 302 303 305 308 310
200 191 186 188 184 178 174 168 158 153 156 152 153 154 152 156 153 144 145 175 188 184 174 172 173 164 127 158 179 195 195 187 191 194 187 182 180 176 175 178 183 188 189 189 190 188 191 192 189 190 191 192 196 196 196 195 194 193 195 198 199 205 210 214 216 218 223 229 232 234 237 242 253 262 269 277 282 287 291 296 299 299 300 303 304
200 195 190 188 183 181 179 170 160 153 154 150 152 155 153 153 142 136 142 158 167 168 169 167 166 143 78 135 178 195 190 183 189 191 186 184 180 175 175 178 183 187 191 192 192 190 193 195 193 195 196 196 195 198 201 200 199 200 203 206 208 213 216 219 220 221 226 231 234 237 238 243 252 260 268 274 280 287 292 296 297 299 301 303 304
199 194 191 190 185 183 182 176 176 174 167 158 159 161 160 160 145 145 151 153 160 164 163 161 158 118 81 111 164 184 183 180 184 188 188 183 176 172 173 176 183 188 192 194 194 193 194 196 197 199 200 201 199 200 204 204 204 206 209 213 217 221 224 226 228 229 233 236 239 245 248 253 258 264 271 278 285 290 294 298 300 304 308 309 312
198 194 192 192 188 187 187 182 187 186 181 176 169 167 170 169 156 157 164 166 168 169 170 167 162 135 76 106 162 172 175 174 176 182 185 179 170 170 170 169 175 187 193 194 196 195 196 198 199 203 205 206 204 205 208 208 211 213 216 220 222 227 232 234 236 239 244 246 248 252 257 263 269 273 279 286 291 294 299 303 304 307 310 312 314
197 195 195 195 191 192 192 188 192 193 191 187 173 171 176 176 175 175 176 179 193 203 182 165 164 151 85 129 166 167 166 167 170 174 178 176 173 174 170 164 163 182 193 194 197 197 196 198 201 207 210 210 208 209 212 213 217 220 221 224 227 232 239 243 242 245 250 255 258 260 262 268 275 281 286 290 292 297 301 303 305 307 309 312 314
197 197 198 199 197 197 197 195 198 200 198 190 181 185 182 181 181 173 172 173 204 232 195 164 161 144 108 135 160 164 162 163 165 168 171 170 172 174 169 164 161 170 184 191 198 199 197 198 203 210 213 214 213 214 215 216 221 226 227 228 232 236 243 249 248 253 258 259 261 264 269 276 280 284 287 289 291 295 300 303 306 310 312 314 315
200 201 202 202 201 201 202 203 206 205 203 199 194 192 182 181 181 168 168 167 165 222 202 186 171 138 130 147 158 162 164 165 165 167 170 168 166 167 164 164 167 166 170 182 195 200 201 202 207 213 215 217 220 221 220 221 226 232 233 234 236 238 243 250 253 258 263 263 264 265 270 276 282 286 287 287 290 294 298 303 307 311 314 314 315
203 205 206 205 204 204 206 207 211 209 205 205 200 193 182 181 181 170 173 176 159 170 186 197 179 134 130 150 163 167 166 167 170 172 173 169 164 162 159 161 168 170 168 173 185 195 203 209 213 214 217 221 223 226 225 226 232 237 240 241 243 244 246 247 252 261 264 267 270 268 269 272 277 282 286 287 288 293 298 303 309 315 319 320 321
207 206 206 206 205 206 208 207 209 209 207 207 203 195 187 186 181 173 180 185 170 154 168 177 166 139 125 135 154 170 177 177 177 176 176 174 166 161 159 159 163 168 170 169 177 188 200 212 218 217 221 225 228 231 232 232 236 241 244 245 245 247 251 252 254 261 265 267 270 271 274 275 278 281 284 291 294 301 309 316 324 331 332 334 336
208 208 206 205 204 205 208 207 206 207 207 205 205 198 189 189 182 176 182 184 172 159 168 168 159 157 145 121 126 158 179 186 187 184 182 179 172 167 164 161 162 162 164 166 168 179 192 202 208 212 218 223 227 231 232 233 236 238 238 239 240 243 250 255 252 255 260 263 261 263 272 275 281 286 284 299 323 348 7 17 13 7 4 4 4
207 209 207 204 204 205 206 207 206 208 208 203 203 197 189 191 183 180 186 186 186 175 178 182 170 156 147 134 114 139 162 188 193 190 189 189 181 175 172 165 165 165 165 167 165 169 179 189 197 201 208 217 221 223 225 230 233 234 233 231 233 235 239 242 242 242 244 248 249 252 263 267 276 296 76 57 56 52 42 36 26 23 20 16 13
206 209 208 206 205 206 207 208 210 212 212 206 204 198 193 194 186 185 192 193 195 182 182 189 175 159 138 129 120 120 123 211 193 179 185 196 191 180 178 170 169 173 173 172 168 166 173 178 187 193 197 206 211 212 215 220 222 223 228 232 232 231 226 226 228 226 222 224 228 229 226 183 150 112 104 88 68 46 27 24 20 18 15 12 10
208 210 210 207 206 208 209 211 214 215 215 212 210 204 199 199 190 189 194 196 198 188 185 186 179 173 156 130 105 124 207 208 184 155 167 192 196 188 181 176 176 177 176 177 173 170 175 173 175 182 187 194 198 202 207 212 217 220 223 226 227 225 222 220 217 210 201 198 194 185 176 163 144 118 110 80 29 9 10 10 7 6 4 4 5
211 211 211 209 207 208 210 213 217 216 216 217 216 210 206 204 196 191 195 198 200 195 192 198 198 194 184 165 125 118 184 165 159 130 130 182 196 193 186 182 181 180 177 180 180 180 183 179 178 180 181 184 187 194 203 209 215 219 221 218 214 218 221 216 204 193 186 185 186 183 178 166 164 164 31 355 356 354 352 352 352 355 357 0 2
212 213 214 212 207 207 210 215 220 219 219 220 219 215 211 209 202 195 196 200 206 202 195 199 206 204 207 206 190 125 168 162 159 159 103 156 191 193 193 190 187 185 185 186 186 184 186 186 186 187 186 184 186 190 189 190 197 205 213 210 206 209 210 203 192 186 185 187 187 186 186 186 197 228 320 333 335 338 336 340 344 347 351 352 352
213 214 215 214 209 208 211 215 221 223 223 224 223 218 213 211 205 200 199 202 212 214 201 197 198 199 206 211 215 242 186 181 186 176 141 117 181 193 199 198 196 194 192 193 192 186 183 186 190 193 197 195 194 191 178 174 182 191 199 199 197 195 192 190 191 189 186 189 194 194 198 199 192 197 214 289 310 321 325 330 333 334 335 334 334
212 214 216 216 212 210 212 215 220 223 225 229 227 221 217 212 207 205 204 204 212 223 213 199 194 200 209 210 208 215 201 200 196 177 154 148 170 193 190 193 203 204 201 199 197 192 188 190 193 198 204 202 201 200 192 192 197 193 192 190 188 186 185 190 193 190 190 194 198 197 198 200 202 214 243 289 306 314 317 319 320 322 322 321 321
210 214 217 218 215 213 214 216 219 222 225 228 227 223 221 217 211 207 205 205 210 220 223 210 203 208 216 214 204 191 183 190 188 175 157 156 172 190 177 177 195 206 205 204 200 197 197 198 198 201 207 206 205 207 207 209 208 203 198 191 190 189 188 193 195 196 198 200 204 204 208 219 235 260 282 298 305 307 309 310 313 315 315 313 312
210 214 218 219 218 216 216 218 220 222 224 226 226 224 223 218 213 208 206 206 209 216 222 217 214 220 223 214 206 197 186 186 187 183 173 161 163 177 183 188 196 202 206 208 205 201 200 204 206 206 207 208 209 210 211 214 215 212 207 201 198 197 197 199 201 204 205 207 212 216 223 235 251 270 283 292 298 301 304 306 307 306 305 302 301
210 214 218 218 218 217 217 220 221 223 225 227 227 225 224 221 214 211 210 209 210 215 219 217 216 222 221 208 203 207 204 199 196 193 195 192 183 179 185 192 200 205 207 209 209 206 205 208 212 213 213 211 211 211 211 216 221 219 211 208 208 207 207 208 211 214 217 220 224 229 237 247 261 272 282 289 294 298 299 300 300 299 299 297 296
209 214 217 218 217 217 217 219 221 224 226 228 230 227 225 223 219 216 216 214 213 216 218 217 216 219 219 208 208 218 217 209 203 201 206 206 198 191 187 189 200 202 204 207 208 209 212 213 217 219 220 218 216 216 215 216 220 219 212 212 216 215 215 218 220 224 227 231 234 239 245 253 264 273 281 287 289 291 292 293 296 299 302 302 300
211 214 218 218 218 218 218 219 221 224 226 228 230 230 227 226 224 221 219 218 218 219 219 219 218 219 222 220 222 228 226 217 209 207 211 211 209 205 192 183 201 192 191 201 202 205 212 217 220 221 223 225 222 221 221 219 220 220 218 220 222 220 220 224 228 232 235 239 241 245 250 256 263 270 276 280 282 284 287 291 297 302 304 304 303
215 216 218 218 219 219 219 220 222 224 227 228 229 230 228 228 228 224 222 222 223 223 223 222 221 221 222 226 226 227 228 224 217 216 217 216 221 217 199 171 174 196 189 196 202 210 214 217 221 222 224 226 226 227 227 225 223 223 225 228 228 226 226 229 232 235 238 242 245 247 250 255 260 266 270 273 276 281 286 292 298 302 303 302 301
217 218 218 219 220 220 220 222 224 225 227 228 229 228 227 228 228 225 224 224 225 226 226 224 223 223 223 225 224 223 227 227 222 221 221 222 227 226 213 195 183 194 213 204 212 221 221 220 222 225 227 227 229 231 231 231 229 227 228 231 232 233 234 234 234 236 239 243 246 249 250 252 255 260 264 267 272 279 286 291 296 300 301 300 298
218 218 218 220 221 221 222 223 224 226 228 229 229 228 226 227 228 227 226 226 225 227 228 225 223 223 223 224 224 224 225 224 222 220 221 226 227 230 233 224 207 190 189 214 223 221 220 221 222 227 229 228 231 233 233 235 235 232 231 233 235 237 238 239 237 238 242 244 246 249 251 251 251 253 257 260 267 275 281 288 295 300 299 298 296
217 219 219 220 221 222 223 224 224 226 227 228 228 227 227 227 227 229 229 227 227 227 228 226 224 222 222 224 226 225 222 219 219 220 223 228 229 231 240 239 227 212 196 195 227 226 219 219 224 229 231 230 231 232 233 237 238 236 234 236 239 240 240 240 240 242 245 245 246 248 252 253 249 248 250 254 260 267 274 286 297 301 298 296 295
216 218 219 220 221 221 222 223 224 225 226 228 228 226 226 227 227 229 230 228 227 227 227 227 226 223 222 223 225 225 222 219 220 225 231 233 233 235 238 237 233 225 212 199 214 233 225 224 228 231 234 234 232 230 232 236 238 236 235 237 240 242 241 239 239 242 245 246 246 248 252 254 249 245 245 249 255 260 269 284 297 300 297 295 296
216 217 219 219 220 221 221 222 224 224 225 226 227 225 225 227 228 228 228 227 227 227 226 227 228 226 224 225 226 225 224 223 225 229 233 236 237 238 236 233 231 229 221 209 208 233 231 231 235 236 236 236 234 231 232 234 235 235 235 238 241 243 241 238 238 241 244 244 244 246 251 252 248 243 242 246 250 257 267 280 292 298 298 296 297
215 216 217 218 219 220 220 221 223 224 225 225 225 224 224 227 228 227 227 226 226 227 227 227 227 227 227 227 228 228 226 227 228 230 232 235 238 239 237 234 229 227 223 216 218 233 236 233 236 239 237 236 236 234 232 232 232 232 234 237 240 244 244 240 240 242 243 244 243 244 247 248 247 244 243 245 249 256 265 274 285 295 297 296 298
214 214 216 217 219 219 219 221 223 225 226 225 224 223 223 225 226 226 226 225 225 226 226 227 227 227 228 229 229 229 228 229 230 230 232 234 236 239 238 234 230 227 225 222 222 228 235 234 235 238 237 236 238 236 232 231 232 232 233 236 239 243 245 245 244 245 246 246 244 244 245 247 249 246 244 244 248 255 263 268 276 288 291 291 295
214 214 216 216 217 218 219 221 223 225 226 226 224 224 223 224 224 224 225 225 225 225 225 226 227 226 226 228 230 228 227 230 232 231 233 234 235 239 240 235 232 230 228 226 225 227 232 235 236 237 236 236 238 237 233 232 233 234 235 239 241 242 245 247 247 248 249 248 247 245 246 249 251 247 244 245 249 255 260 263 268 276 280 280 285
215 215 216 217 217 218 220 221 223 225 226 226 225 224 224 225 225 225 225 225 226 226 226 226 226 225 225 227 229 229 227 229 232 233 233 234 236 238 241 238 234 232 229 227 229 232 235 236 236 235 235 237 238 235 232 231 233 235 238 241 243 243 245 247 249 251 252 251 250 248 248 252 250 244 243 247 250 254 257 259 262 266 268 268 273
216 216 216 217 217 218 220 222 224 225 225 225 225 225 225 226 226 226 226 226 227 227 228 227 227 226 226 228 230 229 226 227 230 233 234 234 236 238 240 240 237 235 233 230 232 234 236 239 240 237 233 234 235 232 229 230 231 234 237 240 242 244 246 248 249 252 254 254 251 249 251 253 248 242 244 248 251 253 255 256 257 259 260 260 263
218 218 217 217 217 218 221 223 224 225 225 225 225 225 226 226 226 227 227 228 228 229 229 229 228 228 227 229 230 229 226 227 229 231 233 234 236 236 238 240 240 238 236 234 235 234 235 239 242 241 234 229 229 228 228 231 233 234 235 238 240 242 244 246 248 251 253 254 253 250 250 251 247 243 245 249 252 253 254 255 255 255 256 255 258
219 219 218 218 218 219 221 222 223 225 225 224 225 226 226 226 226 226 227 228 229 230 231 231 230 230 229 230 231 230 228 228 230 231 232 232 234 235 236 238 240 240 238 237 236 236 236 237 239 241 238 232 229 229 231 233 235 236 236 235 237 239 240 243 246 249 250 252 254 253 251 251 250 247 247 251 254 255 255 255 254 254 254 253 255
219 219 219 220 220 220 222 223 224 225 224 224 225 225 226 226 227 227 227 228 228 230 231 232 232 231 231 232 232 232 231 231 232 232 233 232 232 233 235 236 237 238 238 236 235 235 237 237 238 240 240 237 233 232 232 230 229 231 233 232 234 238 240 241 244 248 249 249 252 254 252 250 249 248 249 251 252 251 251 252 252 252 252 252 252
220 220 221 221 221 221 222 223 225 225 225 225 225 225 225 226 226 228 228 228 229 229 230 232 233 233 233 233 233 234 234 235 235 235 235 236 234 233 233 233 233 234 236 234 232 232 233 235 238 238 238 238 236 231 227 225 224 228 230 229 233 239 242 243 245 247 247 247 248 251 252 250 249 249 250 251 251 248 246 247 248 249 248 248 248
220 221 221 221 222 223 223 223 224 225 225 226 227 227 227 226 226 227 229 229 230 230 230 231 233 234 234 234 235 236 236 237 238 238 238 238 238 238 238 235 232 231 231 230 229 229 230 231 234 233 232 236 236 232 229 229 229 230 229 227 230 235 239 242 246 247 246 245 245 246 248 249 248 249 250 250 250 248 246 247 247 246 245 245 245
220 220 221 221 222 223 224 224 224 224 226 227 228 229 229 229 228 227 228 230 231 231 232 232 233 234 235 236 237 237 237 238 239 239 240 240 240 241 242 240 238 235 232 229 228 228 227 229 232 231 228 233 237 234 233 234 232 229 228 228 229 231 230 231 241 246 244 242 240 241 245 247 246 247 248 249 248 247 246 246 246 244 243 243 243
220 220 221 221 222 223 224 225 225 226 227 228 229 230 230 230 229 228 229 230 231 232 233 233 235 235 236 237 238 238 238 239 239 239 240 241 242 242 243 243 242 241 239 236 233 230 227 228 231 230 228 231 236 235 233 233 232 230 229 229 229 229 227 227 233 240 243 241 235 235 241 244 244 245 247 248 248 248 247 244 241 242 243 243 241
221 221 222 222 223 223 223 225 226 227 229 230 230 230 231 232 231 229 229 230 231 233 234 235 236 237 237 238 238 239 240 240 241 240 240 241 242 242 243 243 242 243 243 243 240 237 234 231 230 232 232 232 234 236 236 233 230 228 228 228 229 228 227 230 235 239 242 240 231 228 236 241 241 242 244 246 247 247 245 242 239 241 243 239 233
221 222 223 223 224 224 224 226 227 229 230 231 231 231 232 233 232 230 230 231 232 234 235 236 237 238 239 238 238 240 241 241 241 241 241 241 242 242 241 241 241 242 243 244 243 241 239 236 235 238 239 236 236 240 241 235 230 228 227 228 229 228 228 234 240 242 242 239 231 225 233 240 239 238 241 243 243 243 241 239 239 240 239 235 230
221 223 224 224 225 226 226 227 229 231 232 233 233 233 233 234 234 232 230 231 233 235 237 237 238 239 240 240 240 242 243 243 242 241 241 241 241 242 241 240 241 241 242 243 242 240 240 239 239 242 244 243 242 245 244 239 235 235 234 234 234 232 233 238 242 243 242 240 234 224 230 241 238 234 238 242 241 240 238 236 237 237 234 232 233
222 224 225 226 227 228 228 229 230 233 235 235 234 235 235 235 234 233 231 231 233 235 237 238 239 240 241 241 242 243 244 245 244 243 243 242 241 241 241 241 242 243 244 244 243 242 242 242 243 244 246 246 246 247 247 243 241 240 238 239 237 233 233 238 241 241 240 240 234 226 229 241 238 233 237 241 239 237 234 233 234 233 229 229 231
220 222 225 227 228 229 230 230 230 233 236 237 236 237 237 235 234 233 232 232 233 235 237 238 239 241 241 242 243 244 246 247 246 246 245 243 241 241 241 242 243 244 246 246 244 244 245 246 247 247 248 248 248 248 248 246 245 242 236 235 234 228 227 232 237 239 238 237 234 227 227 237 238 233 235 238 238 237 234 232 231 228 226 227 226
219 221 223 226 228 230 231 231 232 234 236 237 237 237 237 235 234 233 232 232 234 236 238 239 240 241 242 243 244 245 246 247 247 247 246 243 241 241 241 242 244 246 247 246 245 247 248 248 249 249 249 250 249 248 249 248 247 243 235 233 232 226 224 228 232 237 240 238 235 227 223 232 235 229 227 230 235 235 232 231 229 225 223 224 222
219 221 222 224 227 229 231 232 233 234 236 236 236 236 235 234 234 234 232 231 233 235 238 239 241 242 243 244 245 246 247 249 248 248 247 244 242 242 242 242 244 247 249 247 245 247 248 248 249 248 249 249 248 248 248 247 246 243 238 237 235 227 225 228 228 231 238 241 234 224 219 226 228 222 217 215 224 234 230 228 227 225 223 221 218